Location: Dixon
(37.9953°N, 92.0959°W)
Time: 23:43:53
(UTC+00:00)

LilacSat-2 - Visible Passes

Search period start: 15 February 2026 00:00
Search period end: 25 February 2026 00:00
Orbit: 420 x 430 km, 97.5° (Epoch: 15 February)

Date Brightness Start Highest point End Pass type
(mag) Time Alt. Az. Time Alt. Az. Time Alt. Az.
15 Feb ? 00:27:20 10° ESE 00:29:28 17° ENE 00:31:37 10° NNE visible
15 Feb ? 01:59:08 10° SW 02:01:33 20° W 02:04:00 10° NW visible
16 Feb ? 01:15:41 10° SSE 01:18:55 90° NNW 01:22:10 10° NNW visible
17 Feb ? 00:34:02 10° ESE 00:36:29 20° ENE 00:38:58 10° NNE visible
17 Feb ? 02:06:35 10° SW 02:08:39 16° W 02:10:45 10° NW visible
18 Feb ? 01:22:43 10° S 01:25:55 70° W 01:29:09 10° NNW visible
19 Feb ? 00:40:43 10° SE 00:43:24 25° ENE 00:46:06 10° NNE visible
19 Feb ? 02:14:03 10° WSW 02:15:39 13° W 02:17:15 10° WNW visible
20 Feb ? 01:29:39 10° S 01:32:49 54° W 01:36:01 10° NNW visible
21 Feb ? 00:47:20 10° SE 00:50:12 30° ENE 00:53:06 10° N visible
21 Feb ? 02:21:47 10° WSW 02:22:32 11° W 02:23:17 10° W visible
22 Feb ? 01:36:31 10° S 01:39:36 42° W 01:42:43 10° NNW visible
23 Feb ? 00:53:53 10° SE 00:56:54 37° ENE 00:59:56 10° N visible
24 Feb ? 01:43:18 10° SSW 01:46:17 34° W 01:49:17 10° NNW visible
